Weather reports worldwide

Advertisment
Threave, United Kingdom (99090): temperature & dewpoint: 19.03.2017 21:00:00 - 25.03.2017 21:00:00 (GMT)Threave, United Kingdom (99090): temperature -20cm & temperature -100cm: 19.03.2017 21:00:00 - 25.03.2017 21:00:00 (GMT)Threave, United Kingdom (99090): precipitation: 19.03.2017 21:00:00 - 25.03.2017 21:00:00 (GMT)
Date & Time tt [°C] td [°C] tt -20cm [°C] tt -100cm [°C] rr [mm]
25.03.2017 21:00:00 4,2 1,2 - - 0,0
25.03.2017 20:00:00 4,4 0,8 - - 0,0
25.03.2017 19:00:00 6,9 1,0 - - 0,0
25.03.2017 18:00:00 10,2 2,5 - - 0,0
25.03.2017 17:00:00 13,7 1,9 - - 0,0
25.03.2017 16:00:00 14,3 2,2 - - 0,0
25.03.2017 15:00:00 14,9 1,3 - - 0,0
25.03.2017 14:00:00 15,0 -0,2 - - 0,0
25.03.2017 13:00:00 14,9 -0,9 - - 0,0
25.03.2017 12:00:00 12,6 -0,3 - - 0,0
25.03.2017 11:00:00 10,6 3,9 - - 0,0
25.03.2017 10:00:00 7,3 3,7 - - 0,0
25.03.2017 09:00:00 3,1 3,0 6,7 7,7 0,2
25.03.2017 08:00:00 0,2 0,2 - - 0,0
25.03.2017 07:00:00 -1,2 -1,2 - - 0,0
25.03.2017 06:00:00 -1,6 -1,7 - - 0,0
25.03.2017 05:00:00 -1,2 -1,3 - - 0,0
25.03.2017 04:00:00 -1,0 -1,1 - - 0,0
25.03.2017 03:00:00 -0,8 -1,0 - - 0,0
25.03.2017 02:00:00 0,0 -0,2 - - 0,0
25.03.2017 01:00:00 0,5 0,2 - - 0,0
25.03.2017 00:00:00 1,1 0,8 - - 0,0
24.03.2017 23:00:00 1,6 1,1 - - 0,0
24.03.2017 22:00:00 2,5 1,7 - - 0,0
24.03.2017 21:00:00 3,1 1,6 - - 0,0
24.03.2017 20:00:00 3,9 1,8 - - 0,0
24.03.2017 19:00:00 5,9 2,1 - - 0,0
24.03.2017 18:00:00 10,0 2,7 - - 0,0
24.03.2017 17:00:00 11,2 1,9 - - 0,0
24.03.2017 16:00:00 11,6 2,7 - - 0,0
24.03.2017 15:00:00 11,2 2,0 - - 0,0
24.03.2017 14:00:00 11,4 2,3 - - 0,0
24.03.2017 13:00:00 10,4 0,4 - - 0,0
24.03.2017 12:00:00 9,5 1,7 - - 0,0
24.03.2017 11:00:00 7,7 2,2 - - 0,0
24.03.2017 10:00:00 6,9 3,3 - - 0,0
24.03.2017 09:00:00 3,8 3,8 6,7 7,7 0,0
24.03.2017 08:00:00 0,7 0,7 - - 0,0
24.03.2017 07:00:00 -1,3 -1,4 - - 0,0
24.03.2017 06:00:00 -1,3 -1,4 - - 0,0
24.03.2017 05:00:00 -1,0 -1,2 - - 0,0
24.03.2017 04:00:00 -0,3 -0,3 - - 0,0
24.03.2017 03:00:00 -1,4 -1,7 - - 0,0
24.03.2017 02:00:00 -0,5 -0,6 - - 0,0
24.03.2017 01:00:00 -0,4 -0,8 - - 0,0
24.03.2017 00:00:00 0,3 -0,3 - - 0,0
23.03.2017 23:00:00 1,4 0,5 - - 0,0
23.03.2017 22:00:00 1,5 0,6 - - 0,0
23.03.2017 21:00:00 3,2 2,0 - - 0,0
23.03.2017 20:00:00 4,0 2,2 - - 0,0
23.03.2017 19:00:00 6,1 2,9 - - 0,0
23.03.2017 18:00:00 7,3 2,8 - - 0,0
23.03.2017 17:00:00 8,4 2,9 - - 0,0
23.03.2017 16:00:00 9,7 2,8 - - 0,0
23.03.2017 15:00:00 9,2 3,3 - - 0,0
23.03.2017 14:00:00 10,0 3,8 - - 0,0
23.03.2017 13:00:00 9,2 4,2 - - 0,0
23.03.2017 12:00:00 8,3 4,2 - - 0,0
23.03.2017 11:00:00 6,5 3,8 - - 0,0
23.03.2017 10:00:00 5,6 3,5 - - 0,0
23.03.2017 09:00:00 5,1 3,4 6,7 7,7 0,0
23.03.2017 08:00:00 4,4 3,2 - - 0,0
23.03.2017 07:00:00 4,0 2,8 - - 0,0
23.03.2017 06:00:00 3,9 2,3 - - 0,0
23.03.2017 05:00:00 3,8 2,2 - - 0,0
23.03.2017 04:00:00 3,8 2,2 - - 0,0
23.03.2017 03:00:00 3,9 2,5 - - 0,2
23.03.2017 02:00:00 3,8 2,9 - - 1,0
23.03.2017 01:00:00 4,1 3,3 - - 0,6
23.03.2017 00:00:00 3,7 2,9 - - 2,0
22.03.2017 23:00:00 3,8 2,7 - - 1,2
22.03.2017 22:00:00 3,9 3,0 - - 1,4
22.03.2017 21:00:00 4,3 3,2 - - 0,2
22.03.2017 20:00:00 4,3 2,8 - - 0,4
22.03.2017 19:00:00 3,8 2,8 - - 0,8
22.03.2017 18:00:00 4,4 2,8 - - 0,4
22.03.2017 17:00:00 4,7 2,7 - - 0,0
22.03.2017 16:00:00 4,4 3,3 - - 1,4
22.03.2017 15:00:00 3,9 3,0 - - 1,4
22.03.2017 14:00:00 3,8 2,8 - - 0,6
22.03.2017 13:00:00 3,4 2,8 - - 1,6
22.03.2017 12:00:00 2,7 2,4 - - 1,4
22.03.2017 11:00:00 2,0 1,4 - - 0,8
22.03.2017 10:00:00 2,8 2,3 - - 0,2
22.03.2017 09:00:00 2,5 1,6 7,5 7,9 0,8
22.03.2017 08:00:00 2,0 0,8 - - 0,2
22.03.2017 07:00:00 2,3 0,7 - - 0,0
22.03.2017 06:00:00 2,4 0,3 - - 0,0
22.03.2017 05:00:00 1,8 0,5 - - 0,0
22.03.2017 04:00:00 1,6 0,6 - - 0,0
22.03.2017 03:00:00 1,4 0,8 - - 0,0
22.03.2017 02:00:00 0,5 0,3 - - 0,0
22.03.2017 01:00:00 -0,5 -0,9 - - 0,0
22.03.2017 00:00:00 -0,5 -0,9 - - 0,0
21.03.2017 23:00:00 -0,2 -0,8 - - 0,0
21.03.2017 22:00:00 0,3 -0,5 - - 0,0
21.03.2017 21:00:00 0,9 -0,2 - - 0,0
21.03.2017 20:00:00 1,1 -0,6 - - 0,0
21.03.2017 19:00:00 2,2 -0,9 - - 0,0
21.03.2017 18:00:00 4,8 -0,7 - - 0,0
21.03.2017 17:00:00 6,7 -1,0 - - 0,0
21.03.2017 16:00:00 6,0 0,4 - - 0,0
21.03.2017 15:00:00 6,7 -1,1 - - 0,0
21.03.2017 14:00:00 7,0 -1,3 - - 0,0
21.03.2017 13:00:00 5,9 -1,9 - - 0,0
21.03.2017 12:00:00 7,0 0,1 - - 0,0
21.03.2017 11:00:00 5,9 -0,5 - - 0,0
21.03.2017 10:00:00 5,0 0,2 - - 0,0
21.03.2017 09:00:00 3,7 -0,8 8,2 7,9 0,0
21.03.2017 08:00:00 2,9 -0,9 - - 0,0
21.03.2017 07:00:00 2,3 -1,6 - - 0,0
21.03.2017 06:00:00 2,5 -1,2 - - 0,0
21.03.2017 05:00:00 2,5 -0,7 - - 0,0
21.03.2017 04:00:00 2,3 -0,2 - - 0,0
21.03.2017 03:00:00 2,6 -0,4 - - 0,0
21.03.2017 02:00:00 3,1 -0,5 - - 0,0
21.03.2017 01:00:00 3,4 0,4 - - 0,0
21.03.2017 00:00:00 4,0 1,2 - - 0,0
20.03.2017 23:00:00 3,5 0,6 - - 0,0
20.03.2017 22:00:00 4,7 2,6 - - 0,0
20.03.2017 21:00:00 3,3 1,3 - - 0,2
20.03.2017 20:00:00 3,6 1,9 - - 0,0
20.03.2017 19:00:00 5,0 1,2 - - 0,0
20.03.2017 18:00:00 6,3 0,8 - - 0,0
20.03.2017 17:00:00 7,1 0,4 - - 0,0
20.03.2017 16:00:00 8,6 1,3 - - 0,0
20.03.2017 15:00:00 7,4 1,9 - - 0,0
20.03.2017 14:00:00 8,9 1,6 - - 0,0
20.03.2017 13:00:00 9,6 1,7 - - 0,0
20.03.2017 12:00:00 9,0 2,1 - - 0,0
20.03.2017 11:00:00 7,2 3,1 - - 0,0
20.03.2017 10:00:00 6,2 3,9 - - 0,0
20.03.2017 09:00:00 7,5 3,9 8,7 7,7 0,0
20.03.2017 08:00:00 7,5 6,1 - - 1,2
20.03.2017 07:00:00 8,6 6,5 - - 0,0
20.03.2017 06:00:00 8,8 7,1 - - 0,0
20.03.2017 05:00:00 8,8 7,6 - - 0,0
20.03.2017 04:00:00 8,6 7,9 - - 1,4
20.03.2017 03:00:00 8,0 6,8 - - 0,0
20.03.2017 02:00:00 7,1 5,9 - - 0,0
20.03.2017 01:00:00 5,9 4,7 - - 0,0
20.03.2017 00:00:00 5,5 4,4 - - 0,0
19.03.2017 23:00:00 5,3 3,9 - - 0,0
19.03.2017 22:00:00 5,5 4,0 - - 0,0
19.03.2017 21:00:00 5,4 3,7 - - 0,0

tt = temperature
td = dewpoint
tt -20cm = temperature -20cm
tt -100cm = temperature -100cm
rr = precipitation

Next stations